Regional Weather Roundup
Issued by NWS

Home | Current Version | Previous Version | Text Only | Print | Product List | Glossary Off
Versions: 1 2 3 4 5 6 7 8 9 10 11 12 13 14 15 16 17 18 19 20 21 22 23 24 25 26 27 28 29 30 31 32 33 34 35 36 37 38 39 40 41 42 43 44 45 46 47 48 49 50

849
ASUS44 KJAN 231603
RWRMS

MISSISSIPPI HOURLY WEATHER ROUNDUP
NATIONAL WEATHER SERVICE JACKSON MS
1100 AM CDT WED APR 23 2014

NOTE: "FAIR: INDICATES FEW OR NO CLOUDS BELOW 12,000 FEET WITH NO
SIGNIFICANT WEATHER AND/OR OBSTRUCTIONS TO VISIBILITY.

MSZ001>002-007>008-010>013-018>021-025>028-034>036-231700-
NORTHWEST MISSISSIPPI

CITY           SKY/WX    TMP DP  RH WIND       PRES   REMARKS
CLARKSDALE       N/A     68  43  40 E5        30.06F
CLEVELAND      FAIR      69  50  51 NE6       30.04S
GREENWOOD      SUNNY     71  46  40 NE5       30.04R
GREENVILLE     SUNNY     70  48  45 E7        30.04R
GRENADA        FAIR      68  43  40 E6        30.05S
OLIVE BRANCH   SUNNY     66  37  34 NE8       30.06F
OXFORD         FAIR      66  39  37 NE8       30.07S
TUNICA         SUNNY     70  37  30 NE6       30.06F
$$

MSZ003>006-009-014>017-022>024-029>033-037>039-231700-
NORTHEAST MISSISSIPPI

CITY           SKY/WX    TMP DP  RH WIND       PRES   REMARKS
BELMONT        FAIR      66  39  37 N9        30.04F
COLUMBUS AFB   SUNNY     70  43  37 N6        30.04S
CORINTH        FAIR      66  36  32 E6        30.06S
GOLDN TRIANGLE SUNNY     70  46  43 N6        30.06S
STARKVILLE     FAIR      68  46  45 NE5       30.04S
TUPELO         SUNNY     68  38  33 E10       30.04F
$$

MSZ040-058-231700-
CENTRAL MISSISSIPPI

CITY           SKY/WX    TMP DP  RH WIND       PRES   REMARKS
JACKSON INTL   SUNNY     75  51  43 VRB5      30.01S
JACKSON HAWKNS SUNNY     75  44  33 VRB3      30.02S
MERIDIAN KEY   SUNNY     73  53  49 E7        30.00F
MERIDIAN NAS   SUNNY     72  56  57 NE6       30.01S
RAYMOND        FAIR      73  68  83 NE3       30.02S
VICKSBURG      SUNNY     75  47  36 NE6       30.02S
$$

MSZ059>079-231700-
SOUTH MISSISSIPPI

CITY           SKY/WX    TMP DP  RH WIND       PRES   REMARKS
BROOKHAVEN     FAIR      73  54  49 N3        30.02F
HATTIESBURG    SUNNY     76  59  55 VRB3      30.00F
MCCOMB         SUNNY     76  54  46 NW6       30.00S
NATCHEZ        SUNNY     75  54  46 NE3       30.01S
PINE BELT      SUNNY     73  55  53 E7        30.01S
$$

MSZ080>082-231700-
COASTAL MISSISSIPPI

CITY           SKY/WX    TMP DP  RH WIND       PRES   REMARKS
BAY ST LOUIS   MOSUNNY   79  61  53 VRB3      29.99R
BILOXI         SUNNY     77  64  64 VRB2      29.98S
PASCAGOULA     MOSUNNY   79  63  57 MISG      29.98S
GULFPORT       SUNNY     80  62  54 E6        29.98R
$$



USA.gov is the U.S. government's official web portal to all federal, state and local government web resources and services.